Weather in Ptolemaida

Greece     40°30′38″N   21°40′53″E
temp.,
°C
wind,
m/s
gust,
m/s
humid.,
%
clouds,
%
prec.,
mm/h
press.,
hPa
HPBL,
m
10 may, mon
mon1000:00+9se228518 0.0 102438
03:00+8sse228910 0.0 102419
06:00+6sse11910 0.0 102311
09:00+11s22740 0.0 1023429
12:00+16s225910 0.0 1021999
15:00+19s125428 0.0 10201312
18:00+19ene015612 0.0 10181134
21:00+12se11848 0.0 101911
11 may, tue
tue1100:00+10sse1190100 0.0 102010
03:00+9sse11922 0.0 101912
06:00+8sse11910 0.0 101810
09:00+13s11781 0.0 1018334
12:00+18s226320 0.0 10161034
15:00+20sse225414 0.0 10141469
18:00+20sse335588 0.0 10131142
21:00+13sse12845 0.0 101314
12 may, wed
wed1200:00+11sse228923 0.0 101415
03:00+10sse22900 0.0 101224
06:00+9sse22924 0.0 101224
09:00+13s3380100 0.0 1010337
12:00+18s45583 0.0 10081031
15:00+21ssw8837100 0.0 10062420
18:00+19sw674944 0.0 10051125
21:00+14w227077 0.1 100615
13 may, thu
thu1300:00+11wsw11822 0.1 100711
03:00+9wsw11840 0.1 100813
06:00+8wsw12851 0.0 100814
09:00+13wsw23681 0.0 1007599
12:00+16w345017 0.1 10071634
15:00+16nw235093 0.3 10071300
18:00+16wnw46539 0.0 10071197
21:00+11nnw226992 0.0 100919
14 may, fri
fri1400:00+9sw117313 0.0 101113
03:00+8ssw227427 0.0 101117
06:00+7ssw22835 0.0 101219
09:00+12sw22660 0.0 1013378
12:00+16wsw364845 0.0 10131976
15:00+17w254593 0.0 10131900
18:00+17wnw235356 0.0 1013622
21:00+12nw126491 0.0 101518